Wind_Speed
39 41 42 42 42 41 34 30 27 29 31 32 27 21 21 20 17 17 19 17 15 15 15 15 14 14 13 11 11 9 9 8 7 5 5 3 2 2 2 2 3 2 2 2 3 4 5 6 7
41 42 45 49 48 46 37 33 28 29 35 34 32 25 22 20 17 16 25 23 20 20 15 13 16 15 13 13 12 11 9 9 7 6 4 3 2 2 3 3 3 2 2 1 2 4 5 6 7
39 42 46 51 51 50 41 39 35 33 34 35 36 32 28 25 21 19 24 24 27 24 22 17 17 16 15 15 14 13 11 9 8 6 5 5 4 4 4 4 5 4 3 2 4 5 5 6 7
42 44 46 50 53 48 48 45 39 38 37 36 35 36 34 29 26 25 24 26 27 26 25 16 16 15 16 16 15 13 11 9 8 7 7 7 7 6 6 6 6 4 4 4 5 4 5 6 8
46 48 50 50 47 49 49 48 47 43 41 40 38 36 36 32 28 26 28 31 29 27 23 15 12 13 14 16 16 15 13 11 10 8 8 8 8 8 9 8 6 5 5 5 6 6 8 9 10
50 50 53 53 50 46 47 48 52 50 46 44 40 38 38 35 33 30 27 34 29 25 23 22 17 15 14 16 18 17 15 13 12 10 9 10 10 9 8 7 6 6 6 7 8 10 10 11 13
56 58 56 56 55 52 44 47 50 51 53 49 46 42 43 38 38 36 35 30 36 33 25 23 18 17 16 17 18 18 16 14 12 10 10 10 9 7 6 6 6 7 8 9 11 13 14 15 15
61 63 60 58 57 57 48 48 51 53 53 53 54 50 38 47 43 41 38 34 33 35 36 29 23 19 19 18 19 17 15 14 12 11 10 9 9 7 7 8 8 10 12 13 15 17 18 18 20
66 69 65 61 62 61 55 52 52 53 52 57 58 51 51 43 45 44 40 36 33 35 35 32 26 20 18 18 17 17 16 15 14 13 11 11 11 10 11 12 13 14 16 18 19 21 22 23 24
70 73 68 66 70 69 61 55 57 55 53 56 60 55 60 48 45 47 44 41 37 35 33 29 25 25 23 20 20 18 17 16 15 14 14 15 16 15 16 17 18 20 21 22 23 26 27 28 27
74 75 72 75 77 73 67 61 60 58 57 56 55 59 61 57 50 49 49 46 41 35 36 33 31 29 27 26 25 23 20 20 19 19 19 21 19 20 20 21 22 23 24 27 28 30 30 31 30
73 73 76 81 82 81 73 66 63 62 59 58 56 59 68 63 56 51 51 48 44 40 36 32 31 30 30 30 30 28 27 26 24 22 22 22 22 22 23 24 24 26 28 31 33 34 34 34 33
54 69 78 85 86 84 77 70 67 63 63 63 57 62 61 64 61 56 52 52 50 47 42 37 35 33 32 35 35 33 32 30 28 26 24 23 23 23 24 25 27 29 31 33 35 37 38 38 38
37 47 69 80 86 84 81 74 72 67 65 64 60 59 59 61 64 62 57 55 53 49 44 42 38 37 34 37 38 37 34 32 29 27 25 24 24 25 26 28 29 32 34 36 39 40 42 43 45
36 39 46 67 79 81 82 80 74 66 68 65 64 60 62 61 65 64 61 57 53 48 47 41 36 35 32 34 37 36 35 32 30 29 30 29 29 29 31 32 34 35 37 39 41 44 47 48 50
27 33 27 34 67 76 83 81 69 67 69 66 66 64 62 62 61 65 62 58 53 52 46 39 39 35 33 35 35 35 34 33 32 32 32 33 34 34 35 36 37 38 40 43 46 49 50 50 52
21 24 30 29 32 54 78 77 71 72 71 69 69 67 64 62 60 64 65 61 55 51 46 42 41 36 35 35 35 35 35 32 32 33 35 36 37 37 38 40 40 42 44 46 49 52 51 51 56
19 22 30 30 31 31 63 76 80 73 73 70 67 69 68 62 61 61 67 63 57 52 49 49 47 44 41 39 40 37 34 32 33 35 37 39 39 41 42 43 44 46 48 50 53 52 53 59 59
27 25 21 22 30 31 37 71 78 76 73 71 66 69 69 62 61 59 64 66 60 57 54 52 53 48 44 45 47 46 40 39 38 39 40 41 42 42 44 46 48 49 51 54 57 61 62 62 57
26 28 25 24 28 32 29 41 75 78 75 73 67 67 68 64 60 57 57 64 64 60 59 54 52 52 51 52 53 48 41 40 42 43 45 44 43 43 45 47 49 51 54 56 57 59 60 54 56
25 24 23 27 31 32 33 36 58 81 79 74 68 64 69 66 58 56 55 61 63 64 59 51 51 54 53 57 55 52 46 46 46 48 48 46 43 43 45 47 49 49 50 54 39 46 41 29 11
28 26 30 35 37 35 32 30 35 78 82 75 69 64 66 65 57 55 54 58 62 60 57 57 53 54 56 46 51 48 47 49 50 48 44 40 39 40 40 39 31 41 46 44 51 42 17 9 6
29 30 33 33 32 36 41 42 18 57 85 77 71 63 67 65 57 56 53 62 63 62 57 54 51 49 48 45 44 42 34 35 42 41 38 37 36 36 38 43 44 46 43 44 35 22 8 4 8
30 32 33 30 30 35 30 40 29 33 83 79 70 64 66 64 57 57 56 62 66 61 51 51 51 47 45 45 39 34 34 36 36 36 35 34 36 36 37 37 41 38 34 16 4 10 1 6 13
33 31 28 30 32 29 23 31 33 22 75 79 70 65 66 65 59 60 59 63 62 58 52 49 42 43 41 36 36 35 35 34 32 31 27 26 28 29 27 31 25 2 8 8 2 3 6 11 15
29 27 27 33 33 27 24 37 29 20 60 78 73 68 69 68 65 68 68 69 61 51 47 48 42 39 34 36 37 35 34 28 26 19 18 23 17 23 26 8 18 9 10 5 5 7 12 16 18
23 24 22 35 37 34 29 35 38 38 50 76 81 77 73 72 67 65 66 65 57 50 50 45 37 34 36 38 36 31 26 22 16 16 16 19 18 14 23 21 20 6 7 10 13 15 16 18 20
22 21 25 29 33 32 24 27 32 37 44 80 82 77 77 72 68 66 63 60 53 50 46 40 34 38 39 37 32 26 24 18 17 16 16 16 16 14 14 10 8 10 13 14 16 17 19 20 21
21 17 21 27 26 28 19 22 19 35 51 83 80 74 76 71 67 67 62 55 51 49 46 42 38 39 38 32 28 27 23 21 18 18 17 16 17 15 13 14 13 14 14 16 17 19 20 22 24
15 17 16 18 17 23 29 11 6 22 64 83 79 71 69 69 68 65 58 56 54 51 45 39 35 33 28 27 27 25 23 22 21 20 19 17 19 20 18 18 17 17 16 17 19 20 21 24 26
Wind_Direction
243 241 243 241 239 237 235 234 234 236 235 237 234 222 223 226 222 226 207 207 205 209 199 192 194 192 190 188 190 186 181 190 194 190 189 200 205 220 238 203 179 157 105 50 12 1 1 3 2
246 241 241 243 241 239 233 233 233 234 235 233 235 225 220 215 221 220 206 204 214 212 199 195 191 197 191 196 196 194 197 196 199 200 201 193 197 237 233 218 195 179 205 256 312 313 331 346 346
250 247 241 240 241 241 237 235 228 230 236 235 232 229 221 222 221 211 213 204 202 207 197 200 198 197 191 196 198 199 200 202 198 201 209 207 203 206 212 205 208 209 222 265 293 310 327 334 335
249 250 249 245 241 241 240 236 225 228 233 236 235 231 227 225 223 218 225 202 210 190 193 179 189 191 192 193 196 201 201 204 207 213 214 215 212 217 218 208 210 215 236 264 285 301 311 315 317
250 248 249 249 246 238 237 239 233 229 230 232 233 231 230 225 220 219 218 202 200 181 167 168 183 189 195 196 198 199 198 201 206 209 215 220 225 222 226 225 232 243 258 275 280 282 291 292 294
254 250 248 249 249 245 238 235 235 229 228 229 233 232 228 220 216 215 218 212 209 197 189 180 185 186 192 200 204 200 198 201 205 209 216 226 230 235 240 247 248 256 264 265 267 274 278 282 287
256 257 253 249 248 244 239 235 235 231 226 227 229 234 230 219 219 216 213 219 226 226 207 197 184 194 193 203 202 200 200 202 202 211 215 223 233 240 245 252 262 268 269 265 268 274 278 278 284
250 251 251 254 251 248 242 233 235 232 227 223 225 229 228 223 219 218 215 220 230 223 216 210 184 196 192 201 198 196 203 206 206 216 227 236 246 250 258 264 271 271 263 262 264 268 271 274 272
246 247 249 247 249 249 241 235 235 234 227 223 221 224 232 224 220 221 217 216 219 227 205 201 189 189 198 205 208 203 203 209 218 225 235 246 253 255 261 263 269 266 265 264 264 266 267 270 274
245 242 245 241 241 242 240 234 232 231 230 225 222 214 230 227 219 222 221 218 221 218 203 195 200 199 203 210 219 219 218 221 226 238 245 250 252 256 259 263 266 266 265 263 263 266 268 274 274
245 242 236 237 235 237 234 232 229 229 230 227 223 218 220 227 221 219 222 221 220 220 213 211 212 214 216 216 222 227 228 231 233 239 243 247 252 256 260 265 267 267 266 264 266 267 272 275 277
244 240 234 235 234 232 230 228 227 227 225 227 222 222 214 220 222 218 220 222 218 219 213 217 220 225 224 225 226 230 236 239 243 245 247 250 254 257 261 265 267 268 267 269 271 274 276 276 278
245 238 234 234 234 231 230 226 224 224 222 226 224 224 220 215 221 220 217 220 219 217 224 227 230 231 233 232 231 234 236 241 246 246 248 251 255 260 265 267 268 268 268 271 274 275 277 277 277
273 248 235 233 233 232 230 226 221 219 222 221 222 222 222 217 216 220 220 217 221 220 223 228 230 232 235 236 233 236 239 244 246 246 248 251 256 260 263 265 265 266 268 272 274 276 276 275 277
277 248 246 233 233 232 232 228 220 220 222 218 221 220 219 218 213 215 220 220 217 220 222 224 229 232 235 229 228 231 235 238 240 248 255 257 258 260 263 265 266 269 270 271 273 274 276 279 284
279 244 247 249 232 231 231 222 218 222 222 216 218 220 218 217 213 212 213 217 215 220 221 220 226 225 218 222 227 231 235 239 246 251 258 263 264 265 267 270 273 274 272 272 274 275 278 282 285
281 247 254 252 256 237 229 219 220 222 218 215 216 218 218 215 214 212 212 214 214 215 219 219 219 226 220 224 226 231 236 242 250 257 259 261 265 269 271 273 276 275 274 275 278 280 284 287 286
266 261 252 253 254 259 231 219 223 220 217 215 214 215 219 213 213 211 211 212 213 211 214 217 218 225 231 229 231 236 245 253 256 260 265 269 268 269 272 275 276 276 278 280 279 280 285 284 286
260 263 265 266 258 250 240 224 222 220 217 214 212 214 218 213 213 210 209 210 210 210 211 218 222 228 232 235 236 237 243 254 262 268 270 270 268 270 271 273 275 278 282 284 283 286 284 284 289
266 256 258 261 260 258 244 241 219 221 214 212 209 213 215 214 210 209 208 208 211 211 211 217 224 227 229 232 236 241 247 253 262 269 271 269 269 272 274 275 279 283 285 286 285 287 291 292 294
271 263 261 261 257 249 251 248 226 216 215 213 207 209 213 213 207 207 204 203 205 216 214 218 227 225 228 231 232 238 248 259 264 266 270 267 270 272 274 278 282 288 289 293 281 301 299 284 257
266 266 264 268 256 242 250 257 236 212 216 210 205 206 210 211 204 202 200 195 204 210 216 222 228 232 231 243 247 250 255 253 256 266 266 272 272 273 277 279 273 281 287 285 282 290 244 178 212
269 261 271 274 264 249 243 251 224 220 213 207 205 202 207 208 200 198 196 196 203 210 215 221 227 231 242 242 242 255 259 257 260 262 259 261 263 266 274 281 287 285 293 299 278 232 116 142 255
270 275 281 269 262 256 247 246 222 219 209 207 203 200 204 205 197 194 196 193 202 209 211 216 224 230 231 238 246 250 251 252 253 251 256 262 269 278 282 290 304 299 310 249 205 73 89 259 266
280 282 277 266 257 268 254 249 239 222 204 203 201 199 202 203 196 192 194 194 200 206 209 216 223 224 231 240 243 242 246 250 254 257 269 272 286 277 316 319 312 1 42 42 31 303 281 277 277
276 274 260 254 260 265 264 253 237 234 206 198 194 194 200 199 196 190 193 199 202 201 208 218 219 228 233 234 237 239 242 247 250 263 267 292 339 341 331 40 36 18 6 334 302 286 280 278 286
270 263 270 257 255 252 245 254 240 239 203 193 190 192 195 195 195 190 195 199 199 202 209 214 220 222 224 231 235 237 240 240 241 248 269 290 314 313 310 324 349 1 315 300 296 292 294 299 300
268 271 258 257 260 263 255 246 245 226 215 189 188 190 193 192 193 191 194 194 195 200 206 211 214 220 222 227 231 232 230 234 241 250 266 289 302 317 342 359 326 293 293 300 303 305 302 300 303
292 262 266 261 266 253 245 248 247 237 197 184 184 189 193 190 191 192 192 194 197 201 205 210 219 219 222 223 225 224 227 236 244 254 267 278 294 299 291 295 301 300 307 310 308 303 303 308 308
303 290 278 252 245 247 253 149 110 190 180 177 183 186 191 191 190 193 192 194 198 203 208 210 214 218 223 225 224 225 231 240 248 259 269 277 282 286 284 296 303 298 302 307 305 303 306 303 302
Height
5868 5870 5872 5874 5879 5879 5884 5888 5889 5890 5892 5893 5897 5901 5903 5905 5905 5908 5906 5906 5908 5910 5911 5913 5915 5917 5918 5919 5920 5921 5922 5924 5924 5924 5924 5925 5924 5924 5924 5923 5923 5923 5923 5923 5923 5922 5921 5920 5920
5859 5861 5864 5865 5868 5872 5881 5885 5886 5886 5885 5889 5892 5897 5900 5902 5903 5904 5904 5904 5906 5907 5909 5911 5914 5916 5916 5918 5919 5920 5921 5922 5923 5923 5923 5923 5923 5923 5923 5923 5923 5923 5923 5922 5922 5921 5921 5920 5920
5851 5852 5854 5855 5859 5864 5876 5879 5881 5880 5879 5883 5888 5893 5897 5898 5900 5901 5902 5902 5902 5905 5907 5910 5911 5913 5914 5916 5918 5918 5920 5921 5921 5921 5921 5921 5921 5922 5922 5922 5922 5922 5922 5922 5921 5921 5921 5920 5919
5844 5844 5844 5845 5852 5861 5865 5870 5874 5874 5875 5877 5882 5888 5892 5896 5898 5899 5901 5901 5901 5902 5904 5907 5910 5911 5912 5913 5915 5916 5918 5919 5919 5919 5920 5920 5920 5921 5921 5921 5921 5921 5921 5920 5920 5920 5920 5919 5918
5834 5835 5835 5836 5842 5851 5856 5862 5864 5867 5870 5872 5874 5881 5886 5890 5893 5896 5898 5899 5900 5901 5901 5904 5908 5909 5910 5911 5913 5914 5916 5917 5917 5918 5918 5918 5919 5918 5919 5919 5919 5920 5920 5920 5920 5919 5919 5918 5916
5823 5825 5826 5828 5833 5840 5846 5850 5852 5858 5863 5866 5869 5873 5878 5885 5888 5892 5894 5897 5899 5899 5900 5900 5905 5906 5907 5909 5912 5913 5914 5914 5915 5916 5916 5916 5916 5916 5917 5918 5918 5918 5919 5919 5919 5918 5917 5916 5914
5813 5813 5816 5820 5823 5828 5837 5840 5842 5846 5853 5858 5862 5865 5868 5878 5882 5886 5890 5893 5896 5897 5898 5898 5901 5904 5905 5909 5910 5911 5912 5913 5913 5914 5914 5914 5915 5915 5916 5916 5916 5917 5917 5917 5917 5916 5914 5912 5911
5798 5798 5804 5810 5814 5817 5827 5830 5830 5834 5843 5850 5851 5857 5866 5864 5874 5880 5885 5889 5892 5893 5895 5897 5897 5902 5904 5907 5908 5909 5911 5911 5912 5913 5913 5913 5914 5914 5914 5914 5915 5915 5915 5914 5913 5912 5910 5909 5907
5780 5780 5788 5799 5801 5804 5812 5819 5820 5823 5831 5835 5843 5853 5851 5861 5867 5873 5879 5883 5887 5890 5891 5894 5896 5899 5902 5905 5907 5907 5908 5909 5909 5911 5911 5911 5912 5912 5912 5912 5913 5912 5912 5911 5909 5908 5906 5904 5904
5756 5761 5775 5782 5780 5785 5797 5806 5808 5813 5819 5824 5830 5844 5841 5853 5859 5865 5872 5878 5883 5888 5889 5891 5894 5896 5899 5902 5904 5905 5905 5906 5907 5908 5908 5909 5909 5909 5909 5909 5909 5909 5908 5907 5905 5903 5902 5901 5900
5732 5742 5757 5755 5759 5769 5779 5788 5795 5802 5808 5814 5823 5831 5835 5842 5850 5856 5863 5870 5876 5880 5884 5888 5889 5892 5895 5897 5899 5900 5901 5903 5903 5904 5905 5906 5906 5906 5906 5906 5906 5905 5904 5902 5900 5898 5898 5897 5895
5708 5722 5733 5732 5738 5746 5761 5771 5782 5788 5798 5799 5809 5814 5819 5831 5840 5847 5855 5862 5869 5875 5878 5882 5885 5889 5891 5893 5894 5896 5897 5899 5899 5900 5901 5902 5902 5902 5902 5901 5901 5901 5899 5897 5895 5894 5893 5891 5889
5691 5700 5704 5708 5717 5728 5743 5755 5767 5774 5783 5789 5797 5802 5815 5824 5831 5838 5845 5853 5859 5865 5871 5875 5879 5883 5886 5887 5889 5891 5892 5893 5894 5895 5896 5897 5897 5896 5896 5897 5896 5895 5893 5892 5890 5888 5887 5884 5882
5679 5680 5682 5689 5698 5711 5723 5736 5744 5762 5768 5778 5785 5794 5804 5813 5820 5826 5836 5844 5852 5860 5864 5868 5872 5876 5879 5881 5884 5885 5887 5888 5889 5891 5891 5891 5891 5891 5891 5890 5890 5889 5887 5886 5884 5882 5880 5876 5875
5668 5667 5668 5673 5682 5693 5701 5711 5735 5752 5753 5766 5774 5781 5790 5798 5808 5815 5824 5835 5847 5854 5858 5863 5866 5870 5872 5875 5878 5880 5881 5883 5885 5886 5886 5886 5886 5885 5885 5884 5883 5883 5882 5879 5877 5874 5871 5871 5870
5657 5658 5659 5662 5663 5675 5681 5707 5736 5731 5736 5752 5759 5766 5777 5788 5798 5807 5815 5826 5836 5845 5852 5857 5860 5863 5866 5870 5872 5874 5876 5877 5879 5880 5881 5880 5880 5881 5880 5880 5879 5878 5875 5873 5871 5867 5865 5864 5863
5653 5654 5655 5656 5655 5658 5665 5699 5712 5706 5723 5734 5745 5754 5765 5778 5789 5799 5808 5818 5828 5838 5846 5851 5854 5857 5860 5864 5867 5869 5871 5873 5874 5875 5875 5875 5876 5877 5876 5874 5874 5871 5868 5866 5864 5861 5859 5858 5855
5650 5649 5649 5650 5650 5651 5657 5682 5677 5695 5706 5719 5732 5743 5753 5769 5779 5789 5800 5811 5822 5830 5838 5843 5847 5851 5855 5860 5862 5864 5866 5868 5869 5870 5869 5870 5871 5871 5869 5869 5867 5863 5861 5859 5856 5853 5851 5848 5846
5643 5643 5643 5644 5644 5643 5647 5652 5660 5675 5691 5709 5723 5734 5744 5758 5770 5781 5791 5803 5814 5822 5829 5836 5842 5847 5852 5854 5855 5857 5861 5863 5864 5864 5865 5866 5865 5864 5863 5861 5859 5857 5855 5852 5848 5843 5841 5837 5839
5635 5636 5637 5638 5636 5635 5640 5636 5650 5659 5682 5695 5711 5722 5734 5747 5761 5773 5783 5795 5806 5814 5821 5827 5834 5840 5843 5846 5847 5851 5854 5856 5858 5859 5859 5859 5858 5857 5856 5855 5854 5852 5848 5843 5838 5833 5829 5829 5827
5628 5628 5630 5629 5628 5629 5629 5628 5637 5655 5667 5682 5700 5713 5721 5737 5754 5766 5777 5788 5798 5806 5815 5820 5826 5831 5836 5838 5841 5843 5846 5849 5851 5852 5853 5852 5852 5852 5851 5850 5848 5845 5840 5832 5825 5826 5822 5823 5827
5620 5621 5620 5620 5620 5622 5621 5622 5627 5643 5653 5671 5691 5702 5716 5730 5746 5757 5769 5781 5791 5801 5807 5814 5821 5826 5827 5832 5836 5840 5842 5844 5846 5846 5846 5847 5847 5847 5845 5843 5842 5837 5832 5829 5825 5823 5818 5817 5822
5613 5613 5611 5610 5609 5609 5613 5614 5626 5627 5642 5663 5680 5697 5709 5722 5738 5750 5762 5774 5786 5793 5802 5809 5815 5820 5822 5825 5829 5832 5834 5837 5838 5840 5840 5840 5840 5840 5838 5836 5833 5829 5827 5821 5818 5814 5815 5817 5821
5604 5603 5601 5600 5600 5598 5606 5604 5611 5616 5631 5658 5675 5690 5703 5716 5732 5744 5755 5766 5776 5785 5795 5802 5808 5813 5816 5820 5823 5825 5827 5828 5831 5832 5833 5836 5836 5836 5834 5830 5824 5819 5817 5817 5816 5814 5818 5818 5816
5595 5594 5592 5591 5589 5593 5596 5595 5603 5611 5624 5644 5667 5683 5696 5709 5724 5737 5747 5758 5767 5778 5788 5798 5802 5806 5810 5815 5816 5818 5820 5823 5825 5827 5831 5833 5832 5830 5828 5824 5818 5817 5817 5819 5820 5818 5817 5815 5813
5584 5585 5584 5581 5581 5585 5586 5583 5598 5606 5613 5633 5651 5671 5683 5697 5712 5728 5741 5749 5761 5771 5782 5791 5797 5802 5807 5808 5810 5813 5816 5820 5822 5826 5828 5827 5826 5825 5822 5820 5817 5817 5819 5820 5819 5816 5815 5813 5809
5577 5575 5577 5571 5573 5572 5578 5578 5584 5592 5595 5609 5629 5649 5664 5685 5704 5721 5733 5744 5756 5767 5779 5786 5793 5797 5800 5800 5804 5808 5813 5816 5820 5823 5824 5824 5824 5823 5821 5816 5815 5817 5817 5817 5815 5810 5808 5806 5804
5568 5567 5566 5565 5565 5563 5567 5570 5573 5577 5583 5601 5623 5641 5659 5679 5698 5714 5726 5739 5750 5763 5773 5781 5788 5790 5792 5795 5800 5805 5808 5812 5815 5817 5819 5820 5821 5819 5816 5816 5814 5815 5813 5810 5807 5805 5804 5802 5800
5560 5559 5558 5556 5557 5556 5559 5562 5568 5568 5577 5598 5622 5642 5656 5674 5692 5706 5721 5735 5747 5758 5766 5776 5779 5784 5786 5792 5797 5800 5805 5808 5810 5813 5814 5815 5815 5815 5814 5814 5812 5811 5809 5806 5804 5802 5799 5796 5792
5553 5551 5549 5548 5551 5550 5548 5545 5552 5561 5576 5601 5621 5639 5656 5672 5686 5703 5720 5732 5743 5752 5762 5769 5773 5778 5783 5787 5791 5796 5800 5803 5806 5808 5810 5811 5811 5811 5810 5809 5807 5806 5804 5801 5800 5796 5792 5791 5788